Location: Lecco
(45.8566°N, 9.3977°E)
Time: 11:57:58
(UTC+02:00)

ISS - Pass Details

Date: 20 July 2018
Orbit: 402 x 408 km, 51.6° (Epoch: 21 July)

Event Time Altitude Azimuth Distance (km) Brightness Sun altitude
Rises 23:44:17 0° 257° (WSW) 2,316 0.2 -19.5°
Reaches altitude 10° 23:46:24 10° 263° (W) 1,460 -0.8 -19.7°
Maximum altitude 23:49:36 49° 340° (NNW) 531 -2.9 -19.9°
Drops below altitude 10° 23:52:48 10° 57° (ENE) 1,468 -0.9 -20.1°
Sets 23:54:56 0° 63° (ENE) 2,331 0.1 -20.3°
